Vorticity
8 5 12 27 14 8 8 5 6 16 7 19 15 16 5 18 15 10 19 19 27 31 27 17 16 17 21 6 17 8 5 -2 -1 8 -1 6 5 6 8 9 8 4 3 7
12 34 -0 17 14 12 3 11 16 -2 -3 13 8 2 19 17 15 14 12 17 10 30 23 10 22 13 36 5 24 11 12 -9 -2 -1 -7 -9 4 4 1 2 2 2 5 3
16 4 11 11 6 15 11 -3 -3 1 6 8 51 9 8 4 24 7 15 35 20 33 18 2 11 19 22 13 16 16 10 12 6 5 8 13 6 5 5 6 -3 3 4 1
17 -3 13 15 14 18 19 29 12 -2 20 6 -16 -9 21 2 36 23 11 10 21 22 20 14 7 28 5 22 9 7 10 14 11 10 4 -1 2 -1 -0 3 3 4 4 1
3 9 11 6 13 18 -3 26 18 22 7 14 26 22 -14 9 14 -2 26 26 21 22 11 20 7 15 22 30 8 12 7 5 7 9 6 11 15 15 11 6 13 5 10 -1
17 19 6 3 1 22 18 9 14 22 18 25 25 27 -9 16 5 3 1 25 27 31 18 12 17 9 18 19 17 3 2 3 4 6 10 1 9 16 18 14 23 11 10 14
19 10 -5 7 15 4 24 5 9 16 6 0 -28 48 -17 13 17 15 22 23 24 21 22 23 21 9 8 12 32 -7 8 -4 -11 8 8 -18 -4 16 11 14 11 11 9 5
1 22 8 -26 13 2 5 13 -5 12 2 -21 48 34 -1 15 21 23 26 25 26 30 20 23 18 14 9 16 7 19 18 18 5 0 3 19 36 7 6 0 13 6 16 12
14 16 -22 12 14 -10 3 9 4 2 29 18 14 12 8 3 24 15 17 27 25 32 26 19 26 16 18 22 9 3 11 30 32 20 16 11 -1 15 9 12 8 9 10 14
8 16 28 12 6 15 54 -19 -3 13 10 13 18 -4 -14 11 17 13 10 10 18 21 32 21 20 16 18 22 22 20 19 -1 19 9 25 21 7 8 4 13 7 6 2 2
17 21 -33 3 14 8 36 13 10 3 2 3 9 0 -3 14 10 6 8 13 7 11 14 29 23 23 17 15 15 16 11 17 13 18 13 6 12 5 6 3 3 5 5 7
20 11 -0 14 31 31 14 13 14 -7 17 8 15 1 7 11 8 6 6 5 6 6 11 12 26 11 19 15 18 8 16 13 10 8 -5 1 -0 9 19 16 16 17 21 10
15 6 17 32 6 -13 7 8 16 22 6 9 12 10 12 11 6 8 7 9 8 10 11 10 14 31 31 23 16 14 -4 -1 2 11 14 16 16 14 18 18 24 19 18 19
25 -13 21 23 17 22 42 32 8 3 13 10 22 8 19 12 3 6 10 13 12 14 14 15 13 9 9 13 25 32 31 20 20 18 20 19 18 19 13 16 2 19 17 18
5 14 27 -9 -6 9 43 44 21 22 16 12 18 6 9 9 7 7 9 8 7 10 12 11 4 8 13 14 14 14 17 18 22 25 23 29 19 18 9 18 19 6 17 21
9 -3 13 1 10 -31 26 10 2 11 16 7 8 2 8 7 9 9 10 10 4 2 4 6 7 12 10 7 3 4 9 11 15 19 16 30 27 15 0 21 17 1 12 4
7 14 6 11 4 7 -22 7 15 14 15 13 10 10 10 10 10 9 7 9 11 10 7 11 9 7 7 7 6 8 8 9 6 -0 10 18 14 22 36 27 20 23 -2 6
5 9 23 16 -2 10 6 14 8 4 2 3 2 0 4 5 5 10 9 9 9 10 9 7 6 6 6 8 8 7 7 6 6 8 10 11 1 10 14 25 40 21 19 24
1 9 11 7 12 13 11 8 6 0 6 5 6 9 9 9 5 8 7 6 7 7 8 8 9 7 7 8 8 6 7 8 9 9 9 8 5 9 6 2 6 17 30 34
8 -1 28 -7 9 7 12 9 5 2 4 7 9 12 12 10 9 10 11 9 8 8 7 7 7 7 8 9 7 6 6 7 10 8 9 8 8 9 10 9 11 7 4 9
26 7 3 21 11 14 14 9 -6 7 19 9 13 12 10 9 7 7 7 7 8 8 8 8 8 8 9 8 8 9 9 12 9 9 9 9 8 7 7 7 9 8 9 9
14 15 10 9 10 9 20 23 -9 33 8 8 8 8 7 8 8 7 7 7 8 9 9 8 8 7 7 7 7 7 7 8 7 7 7 7 8 8 9 9 8 7 7 8
2 20 19 19 19 28 14 8 19 6 6 6 6 7 8 7 7 8 8 8 7 8 8 7 7 6 5 5 6 6 6 5 6 6 7 6 7 7 6 6 7 8 9 8
9 9 8 -12 10 11 12 7 8 8 8 8 7 7 7 7 7 7 7 7 7 6 5 4 6 6 6 6 6 7 7 7 8 8 8 8 8 7 8 9 10 8 7 7
11 9 16 24 8 7 7 7 7 7 9 9 7 6 7 7 7 7 8 8 7 6 6 6 6 6 7 7 7 8 7 7 7 7 6 7 6 7 8 7 7 8 10 11
8 12 9 13 13 6 9 9 9 9 9 8 7 7 7 8 9 9 7 6 5 6 6 7 7 8 8 8 8 7 7 7 8 8 7 7 7 7 7 8 9 7 7 9
Height
3068 3068 3065 3065 3064 3062 3061 3060 3055 3048 3049 3051 3043 3039 3026 3023 3025 3022 3021 3019 3017 3019 3027 3032 3034 3039 3045 3049 3054 3060 3066 3072 3081 3086 3093 3097 3101 3104 3106 3109 3112 3115 3118 3120
3065 3062 3062 3060 3059 3057 3057 3055 3048 3042 3044 3043 3035 3031 3027 3020 3015 3016 3011 3010 3006 3005 3012 3013 3019 3026 3032 3038 3043 3049 3057 3064 3070 3078 3085 3089 3094 3096 3101 3103 3106 3109 3112 3115
3061 3061 3059 3056 3055 3052 3051 3051 3047 3046 3038 3035 3030 3022 3021 3017 3012 3004 3002 3001 2997 2995 2999 3004 3007 3012 3019 3027 3034 3041 3049 3056 3063 3070 3076 3079 3083 3088 3092 3096 3098 3102 3105 3107
3058 3057 3054 3051 3049 3048 3043 3045 3045 3042 3042 3034 3033 3019 3016 3011 3008 3000 2993 2994 2990 2989 2991 2994 2999 3003 3007 3016 3024 3031 3040 3048 3055 3062 3067 3071 3076 3081 3086 3090 3092 3094 3098 3100
3056 3052 3049 3049 3047 3045 3041 3041 3040 3039 3038 3035 3026 3028 3013 3009 3004 2998 2991 2987 2985 2984 2986 2989 2993 2998 3001 3005 3014 3023 3031 3039 3046 3053 3058 3063 3069 3073 3078 3081 3082 3085 3088 3091
3050 3048 3048 3048 3045 3041 3039 3038 3036 3035 3035 3033 3028 3027 3015 3010 3005 2998 2992 2985 2980 2978 2980 2984 2987 2993 2998 3002 3008 3014 3023 3031 3037 3044 3050 3055 3060 3064 3069 3072 3074 3076 3077 3080
3046 3045 3046 3045 3042 3039 3037 3037 3035 3033 3032 3026 3023 3021 3019 3012 3004 2997 2989 2983 2978 2977 2978 2979 2982 2987 2993 3000 3006 3011 3017 3023 3031 3037 3042 3045 3050 3058 3061 3064 3066 3067 3070 3072
3045 3043 3043 3042 3041 3039 3036 3037 3036 3033 3026 3025 3020 3018 3018 3013 3006 2997 2989 2982 2975 2973 2976 2978 2980 2983 2987 2994 3000 3006 3012 3018 3024 3030 3034 3038 3044 3050 3053 3055 3056 3058 3062 3065
3045 3042 3041 3038 3037 3038 3035 3034 3035 3034 3029 3026 3020 3019 3015 3013 3007 3000 2992 2985 2975 2971 2973 2976 2980 2981 2985 2990 2995 2999 3004 3011 3016 3022 3027 3029 3038 3042 3046 3047 3049 3051 3054 3056
3044 3039 3035 3034 3034 3032 3030 3032 3033 3033 3028 3020 3018 3019 3019 3012 3007 3002 2995 2989 2984 2978 2974 2975 2978 2979 2982 2987 2992 2996 3001 3006 3012 3014 3017 3027 3031 3035 3036 3039 3040 3042 3044 3046
3042 3042 3034 3032 3029 3027 3025 3026 3029 3030 3029 3023 3017 3022 3020 3017 3012 3006 3000 2994 2987 2985 2982 2975 2977 2979 2982 2985 2990 2994 2998 3004 3005 3009 3014 3021 3024 3026 3028 3029 3030 3031 3033 3035
3040 3038 3031 3027 3024 3022 3021 3022 3025 3025 3024 3022 3019 3025 3021 3018 3014 3010 3005 3000 2996 2990 2987 2977 2979 2978 2981 2984 2987 2990 2995 2998 3002 3007 3012 3014 3015 3016 3017 3017 3018 3019 3021 3023
3039 3038 3033 3026 3025 3022 3021 3020 3020 3020 3020 3019 3019 3024 3021 3019 3016 3012 3008 3005 3000 2997 2993 2988 2984 2981 2977 2981 2983 2986 2991 2995 2997 2999 3001 3003 3004 3005 3005 3006 3007 3007 3009 3011
3037 3035 3034 3033 3031 3026 3018 3014 3016 3017 3017 3016 3020 3022 3021 3020 3017 3014 3010 3007 3002 2999 2995 2991 2988 2985 2983 2981 2982 2985 2989 2989 2991 2993 2994 2994 2995 2996 2997 2998 2999 2999 3000 3002
3036 3035 3034 3033 3030 3025 3017 3012 3012 3014 3014 3015 3021 3021 3020 3020 3018 3016 3013 3009 3006 3001 2998 2995 2993 2990 2987 2983 2985 2985 2986 2987 2988 2988 2988 2988 2989 2990 2992 2993 2993 2994 2995 2996
3035 3033 3032 3031 3029 3026 3020 3017 3015 3016 3016 3019 3021 3021 3022 3021 3019 3017 3014 3012 3009 3005 3003 3002 3001 2998 2995 2992 2989 2989 2989 2988 2988 2988 2987 2987 2987 2986 2986 2987 2988 2988 2989 2990
3033 3032 3030 3029 3027 3026 3026 3025 3021 3019 3021 3023 3023 3024 3024 3023 3021 3019 3016 3013 3011 3008 3006 3004 3003 3000 2998 2996 2995 2993 2991 2989 2990 2990 2989 2987 2985 2984 2982 2982 2983 2983 2983 2983
3030 3029 3029 3027 3027 3028 3030 3029 3027 3025 3025 3025 3025 3025 3025 3024 3022 3021 3019 3017 3015 3013 3011 3008 3006 3004 3002 3000 3000 2998 2996 2994 2993 2993 2991 2989 2987 2984 2982 2980 2978 2977 2976 2975
3028 3027 3026 3026 3027 3030 3030 3029 3029 3027 3028 3027 3027 3027 3026 3025 3024 3023 3021 3020 3017 3015 3014 3011 3009 3007 3005 3005 3002 3000 2999 2997 2996 2995 2993 2991 2989 2986 2984 2982 2978 2976 2973 2971
3026 3024 3024 3024 3026 3027 3028 3028 3028 3028 3029 3029 3028 3027 3026 3026 3026 3025 3024 3022 3020 3019 3017 3015 3013 3011 3010 3007 3005 3003 3002 3001 2999 2996 2994 2992 2990 2988 2986 2983 2980 2976 2974 2971
3025 3023 3022 3023 3024 3026 3026 3027 3029 3031 3036 3029 3028 3028 3028 3028 3028 3027 3026 3024 3022 3021 3019 3017 3015 3014 3012 3010 3008 3007 3005 3004 3000 2997 2996 2995 2992 2990 2987 2984 2982 2979 2975 2972
3023 3022 3022 3023 3024 3027 3025 3027 3029 3030 3029 3030 3029 3029 3029 3029 3029 3028 3026 3024 3023 3022 3021 3019 3018 3016 3013 3011 3009 3007 3005 3002 2999 2997 2995 2994 2992 2989 2987 2984 2981 2979 2975 2973
3023 3022 3021 3023 3023 3023 3024 3026 3028 3029 3029 3029 3030 3030 3030 3029 3028 3027 3026 3025 3025 3025 3023 3021 3019 3017 3015 3013 3011 3008 3006 3002 3000 2996 2994 2992 2989 2987 2985 2983 2981 2978 2975 2971
3021 3020 3021 3022 3023 3023 3024 3026 3027 3028 3028 3029 3029 3028 3029 3028 3028 3028 3027 3026 3025 3023 3021 3019 3017 3015 3014 3011 3008 3005 3003 3000 2997 2995 2993 2989 2987 2985 2983 2980 2978 2975 2972 2969
3021 3020 3019 3020 3021 3023 3024 3025 3026 3028 3029 3029 3029 3028 3028 3028 3028 3027 3027 3026 3025 3024 3022 3020 3018 3016 3013 3010 3007 3004 3001 2998 2995 2993 2989 2986 2983 2980 2977 2976 2973 2970 2966 2964
3019 3020 3020 3020 3021 3022 3024 3025 3027 3028 3029 3030 3030 3030 3030 3029 3029 3028 3027 3026 3025 3023 3021 3019 3016 3013 3011 3008 3005 3002 2999 2996 2993 2990 2986 2983 2979 2976 2972 2968 2965 2962 2959 2956